Regional Weather Roundup
Issued by NWS

Home | Current Version | Previous Version | Text Only | Print | Product List | Glossary Off
Versions: 1 2 3 4 5 6 7 8 9 10 11 12 13 14 15 16 17 18 19 20 21 22 23 24 25 26 27 28 29 30 31 32 33 34 35 36 37 38 39 40 41 42 43 44 45 46 47 48 49 50

000
ASUS43 KFSD 280310
RWRSD

WEATHER ROUNDUP FOR SOUTH DAKOTA
NATIONAL WEATHER SERVICE SIOUX FALLS SD
1000 PM CDT SAT MAY 27 2017

NOTE: "FAIR" INDICATES FEW OR NO CLOUDS BELOW 12,000 FEET WITH NO
SIGNIFICANT WEATHER AND/OR OBSTRUCTIONS TO VISIBILITY.


SDZ001>005-009-010-012>017-280400-
NORTHWEST AND NORTH CENTRAL SOUTH DAKOTA

CITY           SKY/WX    TMP DP  RH WIND       PRES   REMARKS
BUFFALO          N/A     58  47  66 NW10      29.93R
FAITH            N/A     55  48  77 W10       29.95F
MOBRIDGE       PTCLDY    52  46  80 CALM      29.88R
$$

SDZ012>016-024>037-041>051-057-063-072>074-280400-
SOUTHWEST AND SOUTH CENTRAL SOUTH DAKOTA

CITY           SKY/WX    TMP DP  RH WIND       PRES   REMARKS
RAPID CTY ARPT LGT RAIN  60  42  51 NW20      30.05R
PIERRE         MOCLDY    64  39  39 NW14      29.90R
CUSTER         CLEAR     52  30  43 NW5       30.13R
ELLSWORTH AFB  MOCLDY    57  44  61 W12       30.03
PHILIP         CLOUDY    62  42  47 NW9       29.96R
PINE RIDGE     MOCLDY    54  47  77 S3        30.05R
SPEARFISH      MOCLDY    54  45  71 W6        30.07F
WINNER         FAIR      60  49  66 SW6       29.93S
$$

SDZ004>011-016>023-039-040-280400-
NORTHEAST SOUTH DAKOTA

CITY           SKY/WX    TMP DP  RH WIND       PRES   REMARKS
ABERDEEN       LGT RAIN  59  46  62 NW21G32   29.85R
WATERTOWN      CLEAR     58  47  66 S13       29.84S
BROOKINGS      CLEAR     57  48  72 SW8       29.88S
SISSETON         N/A     65  47  52 W16       29.77F
$$

SDZ017-020-022-023-036>040-048>070-280400-
SOUTHEAST SOUTH DAKOTA

CITY           SKY/WX    TMP DP  RH WIND       PRES   REMARKS
SIOUX FALLS    PTCLDY    60  54  80 SW5       29.91S
HURON          CLOUDY    62  49  62 S8        29.85S
CHAMBERLAIN    PTCLDY    64  50  60 SW6       29.91R
MITCHELL       CLEAR     63  49  60 S9        29.89F
YANKTON        PTCLDY    57  52  83 SW7       29.93F
$$

ABBREVIATIONS USED IN REMARKS
   TC - TEMPERATURE IN CELSIUS
  WCI - WIND CHILL INDEX
   HX - HEAT INDEX
  VSB - VISIBILITY





USA.gov is the U.S. government's official web portal to all federal, state and local government web resources and services.